| time (UTC) | temp F | wind direction | speed knots | gust knots | rain 1hr in | rain 24hr in | rain mn in | humidity % | barometer mb |
| 20260506221803 | 69 | 235 | 1.7 | 7.8 | 0.00 | 0.00 | 0.00 | 83 | 1007.6 |
| 20260506221116 | 68 | 231 | 1.7 | 7.0 | 0.00 | 0.00 | 0.00 | 83 | 1007.5 |
| 20260506220003 | 68 | 235 | 4.3 | 11.3 | 0.00 | 0.00 | 0.00 | 83 | 1007.5 |
| 20260506215615 | 68 | 231 | 3.5 | 11.3 | 0.00 | 0.00 | 0.00 | 83 | 1007.6 |
| 20260506214503 | 68 | 234 | 3.5 | 10.4 | 0.00 | 0.00 | 0.00 | 83 | 1007.4 |
| 20260506213603 | 68 | 230 | 3.5 | 9.6 | 0.00 | 0.00 | 0.00 | 83 | 1007.3 |
| 20260506212917 | 69 | 223 | 3.5 | 12.2 | 0.00 | 0.00 | 0.00 | 83 | 1007.1 |
| 20260506211803 | 69 | 232 | 4.3 | 11.3 | 0.00 | 0.00 | 0.00 | 84 | 1007.0 |
| 20260506210903 | 68 | 233 | 4.3 | 10.4 | 0.00 | 0.00 | 0.00 | 84 | 1006.9 |
| 20260506210214 | 68 | 230 | 4.3 | 8.7 | 0.00 | 0.00 | 0.00 | 84 | 1006.8 |
| 20260506205403 | 68 | 233 | 2.6 | 7.8 | 0.00 | 0.00 | 0.00 | 84 | 1006.8 |
| 20260506204503 | 68 | 239 | 2.6 | 10.4 | 0.00 | 0.00 | 0.00 | 85 | 1006.7 |
| 20260506203603 | 67 | 229 | 2.6 | 7.0 | 0.00 | 0.00 | 0.00 | 87 | 1006.7 |
| 20260506202703 | 66 | 224 | 2.6 | 7.8 | 0.00 | 0.00 | 0.00 | 88 | 1007.2 |
| 20260506201803 | 66 | 224 | 2.6 | 6.1 | 0.00 | 0.00 | 0.00 | 88 | 1007.2 |
| 20260506200903 | 66 | 233 | 2.6 | 7.8 | 0.00 | 0.00 | 0.00 | 88 | 1007.1 |
| 20260506200003 | 66 | 226 | 2.6 | 11.3 | 0.00 | 0.00 | 0.00 | 88 | 1007.5 |
| 20260506195403 | 66 | 225 | 2.6 | 11.3 | 0.00 | 0.00 | 0.00 | 88 | 1007.6 |
| 20260506194503 | 66 | 231 | 4.3 | 12.2 | 0.00 | 0.00 | 0.00 | 88 | 1007.7 |
| 20260506193603 | 67 | 227 | 5.2 | 16.5 | 0.00 | 0.00 | 0.00 | 84 | 1007.8 |
| 20260506192703 | 68 | 231 | 5.2 | 13.9 | 0.00 | 0.00 | 0.00 | 83 | 1007.7 |
| 20260506192015 | 68 | 226 | 4.3 | 11.3 | 0.00 | 0.00 | 0.00 | 82 | 1007.7 |
| 20260506190903 | 68 | 232 | 3.5 | 10.4 | 0.00 | 0.00 | 0.00 | 82 | 1007.7 |
| 20260506190215 | 68 | 232 | 4.3 | 15.6 | 0.00 | 0.00 | 0.00 | 82 | 1007.7 |
| 20260506185403 | 68 | 226 | 7.8 | 18.2 | 0.00 | 0.00 | 0.00 | 81 | 1007.7 |
| 20260506184503 | 69 | 233 | 3.5 | 17.4 | 0.00 | 0.00 | 0.00 | 80 | 1007.6 |
| 20260506183603 | 71 | 235 | 3.5 | 7.0 | 0.00 | 0.00 | 0.00 | 78 | 1007.5 |
| 20260506182914 | 71 | 227 | 3.5 | 7.0 | 0.00 | 0.00 | 0.00 | 76 | 1007.6 |
| 20260506182016 | 71 | 234 | 4.3 | 14.8 | 0.00 | 0.00 | 0.00 | 75 | 1007.7 |
| 20260506180903 | 72 | 228 | 4.3 | 12.2 | 0.00 | 0.00 | 0.00 | 74 | 1007.9 |
| 20260506180004 | 72 | 221 | 2.6 | 9.6 | 0.00 | 0.00 | 0.00 | 75 | 1008.1 |
| 20260506175403 | 72 | 226 | 3.5 | 10.4 | 0.00 | 0.00 | 0.00 | 75 | 1008.0 |
| 20260506174503 | 71 | 230 | 2.6 | 9.6 | 0.00 | 0.00 | 0.00 | 76 | 1008.0 |
| 20260506173603 | 71 | 228 | 2.6 | 7.8 | 0.00 | 0.00 | 0.00 | 77 | 1008.0 |
| 20260506172703 | 70 | 231 | 2.6 | 9.6 | 0.00 | 0.00 | 0.00 | 78 | 1008.4 |
| 20260506172017 | 70 | 223 | 1.7 | 5.2 | 0.00 | 0.00 | 0.00 | 80 | 1008.3 |
| 20260506171114 | 70 | 230 | 1.7 | 7.0 | 0.00 | 0.00 | 0.00 | 79 | 1008.5 |
| 20260506170003 | 69 | 229 | 2.6 | 8.7 | 0.00 | 0.00 | 0.00 | 79 | 1008.7 |
| 20260506165613 | 69 | 233 | 3.5 | 10.4 | 0.00 | 0.00 | 0.00 | 78 | 1009.1 |
| 20260506164503 | 69 | 234 | 4.3 | 12.2 | 0.00 | 0.00 | 0.00 | 78 | 1009.3 |
| 20260506163813 | 69 | 237 | 3.5 | 10.4 | 0.00 | 0.00 | 0.00 | 79 | 1009.5 |
| 20260506162915 | 70 | 230 | 3.5 | 9.6 | 0.00 | 0.00 | 0.00 | 77 | 1009.5 |
| 20260506161803 | 70 | 236 | 3.5 | 11.3 | 0.00 | 0.00 | 0.00 | 74 | 1009.8 |
| 20260506160903 | 72 | 227 | 5.2 | 12.2 | 0.00 | 0.00 | 0.00 | 71 | 1009.7 |
| 20260506160003 | 73 | 228 | 6.1 | 19.1 | 0.00 | 0.00 | 0.00 | 68 | 1009.7 |
| 20260506155403 | 73 | 228 | 4.3 | 19.1 | 0.00 | 0.00 | 0.00 | 68 | 1009.7 |
| 20260506154503 | 74 | 233 | 6.1 | 16.5 | 0.00 | 0.00 | 0.00 | 66 | 1009.8 |
| 20260506153603 | 73 | 237 | 4.3 | 14.8 | 0.00 | 0.00 | 0.00 | 69 | 1009.7 |
| 20260506152703 | 73 | 234 | 2.6 | 7.0 | 0.00 | 0.00 | 0.00 | 70 | 1009.6 |
| 20260506151803 | 72 | 234 | 5.2 | 13.0 | 0.00 | 0.00 | 0.00 | 69 | 1009.6 |
| 20260506151115 | 72 | 234 | 5.2 | 12.2 | 0.00 | 0.00 | 0.00 | 68 | 1009.9 |
| 20260506150003 | 73 | 232 | 7.8 | 17.4 | 0.00 | 0.00 | 0.00 | 66 | 1009.7 |
| 20260506145403 | 74 | 237 | 6.1 | 14.8 | 0.00 | 0.00 | 0.00 | 66 | 1009.8 |
| 20260506144717 | 74 | 235 | 4.3 | 13.9 | 0.00 | 0.00 | 0.00 | 68 | 1009.7 |
| 20260506143603 | 74 | 223 | 4.3 | 13.0 | 0.00 | 0.00 | 0.00 | 69 | 1009.5 |
| 20260506142703 | 73 | 228 | 4.3 | 11.3 | 0.00 | 0.00 | 0.00 | 70 | 1009.6 |
| 20260506141803 | 73 | 229 | 4.3 | 11.3 | 0.00 | 0.00 | 0.00 | 71 | 1009.6 |
| 20260506140903 | 72 | 238 | 5.2 | 13.9 | 0.00 | 0.00 | 0.00 | 71 | 1009.4 |
| 20260506140003 | 72 | 238 | 4.3 | 14.8 | 0.00 | 0.00 | 0.00 | 71 | 1009.7 |
| 20260506135403 | 72 | 230 | 4.3 | 11.3 | 0.00 | 0.00 | 0.00 | 72 | 1009.7 |
| 20260506134503 | 72 | 221 | 3.5 | 16.5 | 0.00 | 0.00 | 0.00 | 72 | 1009.7 |
| 20260506133603 | 71 | 216 | 3.5 | 12.2 | 0.00 | 0.00 | 0.00 | 74 | 1009.8 |
| 20260506132703 | 71 | 228 | 5.2 | 13.9 | 0.00 | 0.00 | 0.00 | 74 | 1010.0 |
| 20260506131803 | 71 | 227 | 5.2 | 19.1 | 0.00 | 0.00 | 0.00 | 75 | 1010.1 |
| 20260506131117 | 70 | 225 | 5.2 | 16.5 | 0.00 | 0.00 | 0.00 | 75 | 1010.1 |
| 20260506130004 | 70 | 226 | 4.3 | 9.6 | 0.00 | 0.00 | 0.00 | 77 | 1010.0 |
| 20260506125616 | 69 | 230 | 3.5 | 9.6 | 0.00 | 0.00 | 0.00 | 77 | 1010.0 |
| 20260506124503 | 68 | 229 | 2.6 | 10.4 | 0.00 | 0.00 | 0.00 | 80 | 1010.0 |
| 20260506123815 | 67 | 236 | 2.6 | 9.6 | 0.00 | 0.00 | 0.00 | 80 | 1010.1 |
| 20260506122703 | 67 | 217 | 3.5 | 9.6 | 0.00 | 0.00 | 0.00 | 80 | 1010.2 |
| 20260506121803 | 67 | 220 | 3.5 | 10.4 | 0.00 | 0.00 | 0.00 | 80 | 1010.2 |
| 20260506120903 | 67 | 226 | 4.3 | 9.6 | 0.00 | 0.00 | 0.00 | 80 | 1010.3 |
| 20260506120003 | 67 | 231 | 3.5 | 9.6 | 0.00 | 0.00 | 0.00 | 80 | 1010.4 |
| 20260506115403 | 67 | 227 | 4.3 | 11.3 | 0.00 | 0.00 | 0.00 | 81 | 1010.4 |
| 20260506114503 | 66 | 231 | 4.3 | 13.9 | 0.00 | 0.00 | 0.00 | 81 | 1010.5 |
| 20260506113603 | 66 | 228 | 4.3 | 10.4 | 0.00 | 0.00 | 0.00 | 81 | 1010.5 |
| 20260506112703 | 65 | 230 | 4.3 | 10.4 | 0.00 | 0.00 | 0.00 | 83 | 1010.6 |
| 20260506111803 | 65 | 223 | 3.5 | 10.4 | 0.00 | 0.00 | 0.00 | 83 | 1010.6 |
| 20260506110903 | 65 | 226 | 3.5 | 10.4 | 0.00 | 0.00 | 0.00 | 83 | 1010.4 |
| 20260506110003 | 65 | 223 | 2.6 | 10.4 | 0.00 | 0.00 | 0.00 | 84 | 1010.4 |
| 20260506105403 | 64 | 228 | 3.5 | 11.3 | 0.00 | 0.00 | 0.00 | 85 | 1010.3 |
| 20260506104714 | 64 | 227 | 3.5 | 11.3 | 0.00 | 0.00 | 0.00 | 86 | 1010.4 |
| 20260506103816 | 63 | 229 | 2.6 | 9.6 | 0.00 | 0.00 | 0.00 | 87 | 1010.5 |
| 20260506102703 | 62 | 229 | 3.5 | 9.6 | 0.00 | 0.00 | 0.00 | 88 | 1010.4 |
| 20260506101803 | 62 | 230 | 2.6 | 10.4 | 0.00 | 0.00 | 0.00 | 88 | 1010.2 |
| 20260506100903 | 62 | 228 | 2.6 | 9.6 | 0.00 | 0.00 | 0.00 | 88 | 1010.2 |
| 20260506100004 | 63 | 223 | 3.5 | 9.6 | 0.00 | 0.00 | 0.00 | 87 | 1010.1 |
| 20260506095403 | 63 | 220 | 3.5 | 9.6 | 0.00 | 0.00 | 0.00 | 88 | 1010.0 |
| 20260506094503 | 63 | 225 | 2.6 | 9.6 | 0.00 | 0.00 | 0.00 | 88 | 1010.1 |
| 20260506093603 | 63 | 230 | 3.5 | 9.6 | 0.00 | 0.00 | 0.00 | 87 | 1010.1 |
| 20260506092703 | 63 | 231 | 2.6 | 7.0 | 0.00 | 0.00 | 0.00 | 87 | 1010.0 |
| 20260506091803 | 63 | 228 | 4.3 | 14.8 | 0.00 | 0.00 | 0.00 | 87 | 1010.2 |
| 20260506090903 | 63 | 229 | 3.5 | 9.6 | 0.00 | 0.00 | 0.00 | 87 | 1010.3 |
| 20260506090216 | 63 | 230 | 3.5 | 12.2 | 0.00 | 0.00 | 0.00 | 87 | 1010.3 |
| 20260506085403 | 63 | 225 | 3.5 | 9.6 | 0.00 | 0.00 | 0.00 | 87 | 1010.4 |
| 20260506084503 | 64 | 223 | 2.6 | 8.7 | 0.00 | 0.00 | 0.00 | 86 | 1010.5 |
| 20260506083813 | 64 | 221 | 2.6 | 9.6 | 0.00 | 0.00 | 0.00 | 86 | 1010.5 |
| 20260506082703 | 64 | 222 | 3.5 | 9.6 | 0.00 | 0.00 | 0.00 | 86 | 1010.7 |
| 20260506081803 | 64 | 230 | 3.5 | 9.6 | 0.00 | 0.00 | 0.00 | 86 | 1010.6 |
| 20260506080903 | 64 | 224 | 3.5 | 9.6 | 0.00 | 0.00 | 0.00 | 86 | 1010.7 |
| 20260506080217 | 64 | 223 | 2.6 | 8.7 | 0.00 | 0.00 | 0.00 | 86 | 1010.5 |
| 20260506072703 | 64 | 220 | 2.6 | 7.0 | 0.00 | 0.00 | 0.00 | 86 | 1010.5 |
| 20260506072013 | 64 | 228 | 3.5 | 9.6 | 0.00 | 0.00 | 0.00 | 85 | 1010.7 |
| 20260506071115 | 64 | 224 | 3.5 | 9.6 | 0.00 | 0.00 | 0.00 | 85 | 1010.8 |
| 20260506070213 | 64 | 229 | 2.6 | 8.7 | 0.00 | 0.00 | 0.00 | 85 | 1010.6 |
| 20260506061803 | 65 | 220 | 2.6 | 12.2 | 0.00 | 0.00 | 0.00 | 83 | 1010.7 |
| 20260506060903 | 65 | 216 | 2.6 | 8.7 | 0.00 | 0.00 | 0.00 | 82 | 1010.5 |
| 20260506051117 | 67 | 230 | 3.5 | 10.4 | 0.00 | 0.00 | 0.00 | 78 | 1010.8 |
| 20260506044503 | 67 | 234 | 3.5 | 13.0 | 0.00 | 0.00 | 0.00 | 77 | 1011.0 |
| 20260506043603 | 67 | 230 | 3.5 | 14.8 | 0.00 | 0.00 | 0.00 | 76 | 1011.0 |
| 20260506042912 | 67 | 225 | 3.5 | 12.2 | 0.00 | 0.00 | 0.00 | 76 | 1010.9 |
| 20260506042015 | 68 | 227 | 4.3 | 13.9 | 0.00 | 0.00 | 0.00 | 76 | 1011.2 |
| 20260506041112 | 68 | 228 | 3.5 | 9.6 | 0.00 | 0.00 | 0.00 | 75 | 1011.2 |
| 20260506040004 | 68 | 221 | 4.3 | 12.2 | 0.00 | 0.00 | 0.00 | 75 | 1011.1 |
| 20260506035403 | 68 | 231 | 4.3 | 12.2 | 0.00 | 0.00 | 0.00 | 75 | 1011.0 |
| 20260506034503 | 68 | 227 | 4.3 | 12.2 | 0.00 | 0.00 | 0.00 | 74 | 1011.2 |
| 20260506033603 | 68 | 228 | 3.5 | 12.2 | 0.00 | 0.00 | 0.00 | 74 | 1011.0 |
| 20260506032703 | 68 | 233 | 3.5 | 9.6 | 0.00 | 0.00 | 0.00 | 73 | 1010.9 |
| 20260506031803 | 68 | 227 | 4.3 | 12.2 | 0.00 | 0.00 | 0.00 | 73 | 1011.0 |
| 20260506030903 | 69 | 227 | 4.3 | 13.0 | 0.00 | 0.00 | 0.00 | 72 | 1011.1 |
| 20260506030003 | 69 | 235 | 4.3 | 14.8 | 0.00 | 0.00 | 0.00 | 72 | 1011.0 |
| 20260506025403 | 69 | 234 | 5.2 | 14.8 | 0.00 | 0.00 | 0.00 | 72 | 1011.0 |
| 20260506024503 | 69 | 229 | 4.3 | 12.2 | 0.00 | 0.00 | 0.00 | 71 | 1010.9 |
| 20260506023603 | 69 | 231 | 4.3 | 13.9 | 0.00 | 0.00 | 0.00 | 71 | 1011.1 |
| 20260506022703 | 69 | 222 | 4.3 | 13.9 | 0.00 | 0.00 | 0.00 | 70 | 1011.0 |
| 20260506021803 | 69 | 226 | 5.2 | 14.8 | 0.00 | 0.00 | 0.00 | 69 | 1011.1 |
| 20260506020903 | 69 | 222 | 4.3 | 13.0 | 0.00 | 0.00 | 0.00 | 69 | 1011.0 |
| 20260506020003 | 69 | 230 | 5.2 | 13.0 | 0.00 | 0.00 | 0.00 | 69 | 1011.1 |
| 20260506015403 | 70 | 232 | 5.2 | 13.0 | 0.00 | 0.00 | 0.00 | 68 | 1011.0 |
| 20260506014503 | 69 | 218 | 4.3 | 13.0 | 0.00 | 0.00 | 0.00 | 68 | 1010.7 |
| 20260506013817 | 70 | 222 | 4.3 | 12.2 | 0.00 | 0.00 | 0.00 | 68 | 1010.7 |
| 20260506012914 | 70 | 225 | 5.2 | 11.3 | 0.00 | 0.00 | 0.00 | 68 | 1010.6 |
| 20260506011803 | 70 | 237 | 4.3 | 13.0 | 0.00 | 0.00 | 0.00 | 66 | 1010.7 |
| 20260506010903 | 70 | 232 | 5.2 | 16.5 | 0.00 | 0.00 | 0.00 | 66 | 1010.4 |
| 20260506010003 | 70 | 225 | 4.3 | 12.2 | 0.00 | 0.00 | 0.00 | 66 | 1010.4 |
| 20260506005403 | 71 | 217 | 4.3 | 13.0 | 0.00 | 0.00 | 0.00 | 65 | 1010.3 |
| 20260506004503 | 71 | 225 | 4.3 | 12.2 | 0.00 | 0.00 | 0.00 | 64 | 1010.2 |
| 20260506003603 | 72 | 221 | 4.3 | 9.6 | 0.00 | 0.00 | 0.00 | 63 | 1010.2 |
| 20260506002703 | 72 | 220 | 4.3 | 14.8 | 0.00 | 0.00 | 0.00 | 63 | 1010.1 |
| 20260506001803 | 73 | 231 | 4.3 | 14.8 | 0.00 | 0.00 | 0.00 | 62 | 1010.0 |
| 20260506000903 | 73 | 229 | 4.3 | 12.2 | 0.00 | 0.00 | 0.00 | 61 | 1010.0 |
| 20260506000003 | 73 | 227 | 3.5 | 9.6 | 0.00 | 0.00 | 0.00 | 61 | 1009.8 |
| 20260505235403 | 74 | 229 | 3.5 | 10.4 | 0.00 | 0.00 | 0.00 | 60 | 1009.7 |
| 20260505234503 | 74 | 229 | 4.3 | 12.2 | 0.00 | 0.00 | 0.00 | 59 | 1009.6 |
| 20260505233813 | 75 | 218 | 3.5 | 11.3 | 0.00 | 0.00 | 0.00 | 58 | 1009.4 |
| 20260505232703 | 77 | 212 | 2.6 | 8.7 | 0.00 | 0.00 | 0.00 | 55 | 1009.4 |
| 20260505231803 | 78 | 232 | 3.5 | 12.2 | 0.00 | 0.00 | 0.00 | 52 | 1009.2 |
| 20260505230903 | 79 | 228 | 4.3 | 15.6 | 0.00 | 0.00 | 0.00 | 51 | 1009.2 |
| 20260505230003 | 79 | 224 | 3.5 | 15.6 | 0.00 | 0.00 | 0.00 | 51 | 1009.1 |
| 20260505225403 | 79 | 221 | 2.6 | 12.2 | 0.00 | 0.00 | 0.00 | 52 | 1009.0 |
| 20260505224503 | 80 | 230 | 3.5 | 8.7 | 0.00 | 0.00 | 0.00 | 51 | 1008.9 |
| 20260505223603 | 81 | 223 | 3.5 | 17.4 | 0.00 | 0.00 | 0.00 | 50 | 1008.7 |
| 20260505222703 | 82 | 215 | 3.5 | 12.2 | 0.00 | 0.00 | 0.00 | 50 | 1008.7 |